weather.gov     
National Weather Service

Regional Weather Roundup
NWS Homepage
This page is being discontinued on March 12, 2014.
The same data is available at this site. Please update your bookmarks.
Thank you, and we apologize for the inconvenience.
Please send an email to SR-SRH.Webmaster@noaa.gov with any concerns.


Current Version
Previous Version:    01  02  03  04  05  06  07  08  09  10  11  12  13  14  15  16  17  18  19  20  21  22  23  24  25  26  27  
[Printable]
981
ASUS41 KBGM 241810
RWRBGM
RWRBGM
BINGHAMTON REGIONAL WEATHER ROUNDUP
NATIONAL WEATHER SERVICE BINGHAMTON NY
200 PM EDT THU APR 24 2014

Note: "fair" indicates few or no clouds below 12,000 feet with no
significant weather and/or obstructions to visibility.

* = Station(s) that does not report precipitation, such as rain,
snow, etc, also no thunder or fog.

!NYZ009-015>018-022>025-036-037-044>046-055>057-062-241900
...CENTRAL NEW YORK...

CITY           SKY/WX    TMP DP  RH WIND       PRES   REMARKS
BINGHAMTON     SUNNY     48  17  29 NW17G28   30.01R
CORTLAND       FAIR      46  23  39 NW12G23   30.06R
DANSVILLE      SUNNY     52  21  29 N15       30.10F
ELMIRA         SUNNY     53  17  24 NW12G18   30.06F
ITHACA         SUNNY     48  19  31 N17G25    30.07S
HAMILTON       CLEAR     46  19  34 N16G24    30.02
HORNELL        CLEAR     48  16  27 N13       30.11F
MONTICELLO     SUNNY     52  16  24 NW22G37   29.93S
NORWICH        SUNNY     48  18  29 N13G22    30.02R
ONEONTA        SUNNY     45  12  26 N10G23    29.95S
PENN YAN       SUNNY     50  16  25 NW14G24   30.08F
ROME           SUNNY     52  14  22 NW23G30   30.00S
SIDNEY         SUNNY     54  21  28 NW9G25    30.00R
SYRACUSE       MOSUNNY   49  19  30 W18G25    30.08R
$$

!PAZ038>040-043-044-047-048-072-241900
...NORTHEAST PENNSYLVANIA...

CITY           SKY/WX    TMP DP  RH WIND       PRES   REMARKS
SCRANTON       SUNNY     54  15  21 NW21G28   30.00S
TOWANDA*       CLEAR     52  12  20 N12G22    30.05F
$$
&&
KEY
WCI = WIND CHILL INDEX
VSB = VISIBILITY
HX  = HEAT INDEX
$$




U.S. Dept. of Commerce
NOAA National Weather Service
1325 East West Highway
Silver Spring, MD 20910
E-mail: w-nws.webmaster@noaa.gov
Page last modified: May 16, 2007
NATIONAL WEATHER SERVICE: for Safety, for Work, for Fun - FOR LIFE